{"data":{"norad_id":68643,"epoch":"2026-09-20T02:52:18.376032Z","epoch_age_seconds":96011,"freshness":"FRESH","line1":"1 68643U 26075H   26263.11965713  .00000038  00000+0  39923-4 0  9999","line2":"2 68643  88.9856 311.2881 0002328  87.6301 272.5117 13.51025165 22623","mean_motion":13.51025165,"eccentricity":0.0002328,"inclination_deg":88.9856,"raan_deg":311.2881,"arg_perigee_deg":87.6301,"mean_anomaly_deg":272.5117,"bstar":3.9923e-5,"rev_number":2262,"period_min":106.58572743906,"perigee_km":1066.7555390529,"apogee_km":1070.2226881714,"semimajor_km":7446.6261136121,"source":"CELESTRAK","updated_at":"2026-09-20T09:00:24.369503Z"}}